Regional Weather Roundup
Issued by NWS

Home | Current Version | Previous Version | Text Only | Print | Product List | Glossary On
Versions: 1 2 3 4 5 6 7 8 9 10 11 12 13 14 15 16 17 18 19 20 21 22 23 24 25 26 27 28 29 30 31 32 33 34 35 36 37 38 39 40 41 42 43 44 45 46 47 48 49 50
000
ASUS43 KBIS 222210
RWRND

NORTH DAKOTA REGIONAL WEATHER ROUNDUP
NATIONAL WEATHER SERVICE BISMARCK ND
500 PM CDT FRI SEP 22 2017

NOTE: "FAIR" INDICATES FEW OR NO CLOUDS BELOW 12,000 FEET WITH NO
SIGNIFICANT WEATHER AND/OR OBSTRUCTIONS TO VISIBILITY.


NDZ001>003-009>011-017-222300-
NORTHWEST NORTH DAKOTA

CITY           SKY/WX    TMP DP  RH WIND       PRES   REMARKS
WILLISTON      CLOUDY    48  40  73 N17       30.01R
MINOT          CLOUDY    50  43  77 NW18G29   29.91R
MINOT AFB      CLOUDY    49  42  78 N16G26    29.91R
$$

NDZ018>021-031>035-040>046-222300-
SOUTHWEST NORTH DAKOTA

CITY           SKY/WX    TMP DP  RH WIND       PRES   REMARKS
BISMARCK       CLOUDY    52  45  77 N14       29.85R
DICKINSON      CLOUDY    49  40  71 NW20      29.92R
GARRISON         N/A     48  44  86 N16G28    29.91R
HETTINGER ARPT CLOUDY    50  38  63 N20G29    29.90F
$$

NDZ004>008-012>016-024-026-027-054-222300-
NORTHEAST NORTH DAKOTA

CITY           SKY/WX    TMP DP  RH WIND       PRES   REMARKS
GRAND FORKS    PTSUNNY   75  63  66 NE13      29.65F
GRND FRKS AFB  CLOUDY    70  59  67 N13       29.68F
DEVILS LAKE    CLOUDY    55  50  83 N20G25    29.78F
$$

NDZ022-023-025-028>030-036>039-047>053-222300-
SOUTHEAST NORTH DAKOTA

CITY           SKY/WX    TMP DP  RH WIND       PRES   REMARKS
FARGO          PTSUNNY   86  72  62 S15G21    29.62S HX  92
JAMESTOWN      CLOUDY    64  55  72 N16       29.69S
$$




USA.gov is the U.S. government's official web portal to all federal, state and local government web resources and services.